Location: Archemont
(49.1579°N, 1.7598°E)
Time: 13:31:32
(UTC+00:00)

A-11 Canister half - Pass Details

Date: 25 April 2024
Orbit: 1525 x 1683 km, 47.3° (Epoch: 20 May)

Event Time Altitude Azimuth Distance (km) Brightness Sun altitude
Exits shadow 02:46:48 - 182° (S) 4,083 10.8 -16.5°
Reaches altitude 10° 02:47:49 10° 178° (S) 3,851 10.7 -16.4°
Maximum altitude 02:55:03 24° 130° (SE) 2,954 10.5 -15.5°
Drops below altitude 10° 03:02:24 10° 83° (E) 3,936 12.0 -14.6°
Sets 03:06:23 0° 70° (ENE) 4,937 13.0 -14.1°
